| time (UTC) | temp F | wind direction | speed knots | gust knots | rain 1hr in | rain 24hr in | rain mn in | humidity % | barometer mb |
| 20260831195004 | 83 | 250 | 0.0 | 3.5 | 0.00 | 0.00 | 0.00 | 100 | 1018.0 |
| 20260831194505 | 83 | 273 | 0.0 | 4.3 | 0.00 | 0.00 | 0.00 | 100 | 1018.1 |
| 20260831194005 | 84 | 236 | 0.9 | 4.3 | 0.00 | 0.00 | 0.00 | 100 | 1018.1 |
| 20260831193506 | 84 | 303 | 0.0 | 5.2 | 0.00 | 0.00 | 0.00 | 100 | 1018.2 |
| 20260831193005 | 85 | 299 | 1.7 | 5.2 | 0.00 | 0.00 | 0.00 | 100 | 1018.3 |
| 20260831192504 | 85 | 325 | 0.0 | 3.5 | 0.00 | 0.00 | 0.00 | 100 | 1018.3 |
| 20260831192004 | 85 | 315 | 0.0 | 3.5 | 0.00 | 0.00 | 0.00 | 100 | 1018.2 |
| 20260831191503 | 85 | 318 | 0.0 | 3.5 | 0.00 | 0.00 | 0.00 | 100 | 1018.1 |
| 20260831191003 | 85 | 316 | 0.9 | 3.5 | 0.00 | 0.00 | 0.00 | 100 | 1018.1 |
| 20260831190503 | 85 | 242 | 0.9 | 4.3 | 0.00 | 0.00 | 0.00 | 100 | 1018.1 |
| 20260831190004 | 86 | 239 | 0.9 | 4.3 | 0.00 | 0.00 | 0.00 | 100 | 1018.0 |
| 20260831185502 | 88 | 244 | 0.0 | 4.3 | 0.00 | 0.00 | 0.00 | 100 | 1017.9 |
| 20260831185001 | 89 | 344 | 0.9 | 5.2 | 0.00 | 0.00 | 0.00 | 100 | 1017.9 |
| 20260831184608 | 90 | 81 | 0.0 | 4.3 | 0.00 | 0.00 | 0.00 | 100 | 1017.8 |
| 20260831184058 | 90 | 30 | 1.7 | 4.3 | 0.00 | 0.00 | 0.00 | 100 | 1017.9 |
| 20260831183556 | 89 | 23 | 0.9 | 4.3 | 0.00 | 0.00 | 0.00 | 100 | 1018.0 |
| 20260831183100 | 88 | 138 | 0.9 | 4.3 | 0.00 | 0.00 | 0.00 | 100 | 1018.1 |
| 20260831182554 | 88 | 21 | 1.7 | 7.8 | 0.00 | 0.00 | 0.00 | 100 | 1018.2 |
| 20260831182053 | 89 | 144 | 2.6 | 8.7 | 0.00 | 0.00 | 0.00 | 100 | 1018.3 |
| 20260831181556 | 90 | 133 | 1.7 | 7.0 | 0.00 | 0.00 | 0.00 | 100 | 1018.2 |
| 20260831181048 | 89 | 26 | 1.7 | 8.7 | 0.00 | 0.00 | 0.00 | 100 | 1018.3 |
| 20260831180547 | 89 | 74 | 0.9 | 6.1 | 0.00 | 0.00 | 0.00 | 100 | 1018.2 |
| 20260831180046 | 89 | 121 | 1.7 | 9.6 | 0.00 | 0.00 | 0.00 | 100 | 1018.2 |
| 20260831175544 | 89 | 119 | 1.7 | 9.6 | 0.00 | 0.00 | 0.00 | 100 | 1018.2 |
| 20260831175043 | 89 | 40 | 2.6 | 7.0 | 0.00 | 0.00 | 0.00 | 100 | 1018.2 |
| 20260831174542 | 89 | 32 | 1.7 | 7.8 | 0.00 | 0.00 | 0.00 | 100 | 1018.1 |
| 20260831174041 | 89 | 51 | 0.9 | 7.8 | 0.00 | 0.00 | 0.00 | 100 | 1018.2 |
| 20260831173540 | 89 | 30 | 1.7 | 5.2 | 0.00 | 0.00 | 0.00 | 100 | 1018.4 |
| 20260831173038 | 89 | 22 | 1.7 | 7.0 | 0.00 | 0.00 | 0.00 | 100 | 1018.6 |
| 20260831172537 | 88 | 360 | 1.7 | 7.8 | 0.00 | 0.00 | 0.00 | 100 | 1018.7 |
| 20260831172035 | 88 | 138 | 2.6 | 7.8 | 0.00 | 0.00 | 0.00 | 100 | 1018.7 |
| 20260831171538 | 88 | 82 | 1.7 | 5.2 | 0.00 | 0.00 | 0.00 | 100 | 1018.5 |
| 20260831171035 | 89 | 140 | 1.7 | 7.0 | 0.00 | 0.00 | 0.00 | 100 | 1018.6 |
| 20260831170534 | 89 | 28 | 0.9 | 7.0 | 0.00 | 0.00 | 0.00 | 100 | 1018.7 |
| 20260831170033 | 89 | 64 | 1.7 | 7.0 | 0.00 | 0.00 | 0.00 | 100 | 1018.9 |
| 20260831165528 | 88 | 59 | 1.7 | 7.0 | 0.00 | 0.00 | 0.00 | 100 | 1018.9 |
| 20260831165025 | 89 | 114 | 0.9 | 7.0 | 0.00 | 0.00 | 0.00 | 100 | 1018.8 |
| 20260831164524 | 88 | 325 | 1.7 | 9.6 | 0.00 | 0.00 | 0.00 | 100 | 1018.8 |
| 20260831164022 | 88 | 93 | 2.6 | 9.6 | 0.00 | 0.00 | 0.00 | 100 | 1018.7 |
| 20260831163521 | 87 | 41 | 0.9 | 6.1 | 0.00 | 0.00 | 0.00 | 100 | 1018.7 |
| 20260831163030 | 87 | 116 | 1.7 | 6.1 | 0.00 | 0.00 | 0.00 | 100 | 1018.9 |
| 20260831162524 | 86 | 80 | 0.9 | 6.1 | 0.00 | 0.00 | 0.00 | 100 | 1018.9 |
| 20260831162019 | 86 | 117 | 0.9 | 3.5 | 0.00 | 0.00 | 0.00 | 100 | 1019.0 |
| 20260831161518 | 86 | 109 | 0.9 | 4.3 | 0.00 | 0.00 | 0.00 | 100 | 1019.1 |
| 20260831161023 | 86 | 18 | 0.9 | 6.1 | 0.00 | 0.00 | 0.00 | 100 | 1019.2 |
| 20260831160518 | 86 | 140 | 0.0 | 6.1 | 0.00 | 0.00 | 0.00 | 100 | 1019.2 |
| 20260831160021 | 86 | 64 | 0.0 | 7.0 | 0.00 | 0.00 | 0.00 | 100 | 1019.2 |
| 20260831155519 | 86 | 137 | 1.7 | 7.0 | 0.00 | 0.00 | 0.00 | 100 | 1019.3 |
| 20260831155019 | 86 | 87 | 0.0 | 5.2 | 0.00 | 0.00 | 0.00 | 100 | 1019.3 |
| 20260831154703 | 86 | 122 | 1.7 | 5.2 | 0.00 | 0.75 | 0.00 | 100 | 1019.4 |
| 20260831154017 | 86 | 94 | 0.9 | 4.3 | 0.00 | 0.75 | 0.00 | 100 | 1019.3 |
| 20260831153521 | 86 | 128 | 0.9 | 3.5 | 0.00 | 0.75 | 0.00 | 100 | 1019.4 |
| 20260831153024 | 86 | 55 | 0.9 | 3.5 | 0.00 | 0.75 | 0.00 | 100 | 1019.4 |
| 20260831152516 | 87 | 134 | 0.0 | 4.3 | 0.00 | 0.75 | 0.00 | 100 | 1019.3 |
| 20260831152020 | 87 | 109 | 1.7 | 4.3 | 0.00 | 0.75 | 0.00 | 100 | 1019.3 |
| 20260831151514 | 88 | 90 | 0.9 | 4.3 | 0.00 | 0.75 | 0.00 | 100 | 1019.3 |
| 20260831151013 | 87 | 355 | 0.9 | 4.3 | 0.00 | 0.75 | 0.00 | 100 | 1019.2 |
| 20260831150511 | 87 | 101 | 0.0 | 4.3 | 0.00 | 0.75 | 0.00 | 100 | 1019.1 |
| 20260831150011 | 87 | 88 | 0.9 | 3.5 | 0.00 | 0.75 | 0.00 | 100 | 1019.2 |
| 20260831145507 | 88 | 123 | 0.0 | 2.6 | 0.00 | 0.75 | 0.00 | 100 | 1019.3 |
| 20260831145007 | 87 | 336 | 0.0 | 3.5 | 0.00 | 0.75 | 0.00 | 100 | 1019.3 |
| 20260831144505 | 87 | 76 | 0.0 | 7.0 | 0.00 | 0.80 | 0.00 | 100 | 1019.2 |
| 20260831144004 | 86 | 5 | 1.7 | 7.0 | 0.00 | 0.80 | 0.00 | 100 | 1019.3 |
| 20260831143504 | 86 | 16 | 0.9 | 5.2 | 0.00 | 0.80 | 0.00 | 100 | 1019.3 |
| 20260831143001 | 86 | 360 | 1.7 | 5.2 | 0.00 | 0.80 | 0.00 | 100 | 1019.2 |
| 20260831142503 | 85 | 342 | 0.0 | 4.3 | 0.00 | 0.80 | 0.00 | 100 | 1019.3 |
| 20260831142101 | 85 | 5 | 0.0 | 3.5 | 0.00 | 0.80 | 0.00 | 100 | 1019.2 |
| 20260831141615 | 85 | 61 | 0.0 | 5.2 | 0.00 | 0.80 | 0.00 | 100 | 1019.2 |
| 20260831141503 | 85 | 57 | 0.9 | 5.2 | 0.00 | 0.80 | 0.00 | 100 | 1019.2 |
| 20260831141058 | 85 | 17 | 1.7 | 5.2 | 0.00 | 0.80 | 0.00 | 100 | 1019.1 |
| 20260831140558 | 86 | 9 | 0.9 | 3.5 | 0.00 | 0.80 | 0.00 | 100 | 1019.0 |
| 20260831140057 | 85 | 97 | 0.0 | 2.6 | 0.00 | 0.80 | 0.00 | 100 | 1018.9 |
| 20260831135556 | 85 | 94 | 0.0 | 2.6 | 0.00 | 0.80 | 0.00 | 100 | 1018.9 |
| 20260831135058 | 85 | 328 | 0.0 | 3.5 | 0.00 | 0.80 | 0.00 | 100 | 1018.8 |
| 20260831134602 | 85 | 311 | 0.0 | 3.5 | 0.00 | 0.81 | 0.00 | 100 | 1018.7 |
| 20260831134054 | 84 | 338 | 0.0 | 3.5 | 0.00 | 0.81 | 0.00 | 100 | 1018.7 |
| 20260831133551 | 84 | 17 | 0.9 | 3.5 | 0.00 | 0.81 | 0.00 | 100 | 1018.7 |
| 20260831133049 | 84 | 360 | 0.0 | 2.6 | 0.00 | 0.81 | 0.00 | 100 | 1018.6 |
| 20260831132549 | 83 | 5 | 0.0 | 3.5 | 0.00 | 0.81 | 0.00 | 100 | 1018.5 |
| 20260831132048 | 83 | 329 | 0.9 | 3.5 | 0.00 | 0.81 | 0.00 | 100 | 1018.5 |
| 20260831131547 | 83 | 350 | 0.0 | 0.0 | 0.00 | 0.81 | 0.00 | 100 | 1018.5 |
| 20260831131047 | 83 | 10 | 0.0 | 0.0 | 0.00 | 0.81 | 0.00 | 100 | 1018.6 |
| 20260831130545 | 83 | 355 | 0.0 | 0.0 | 0.00 | 0.81 | 0.00 | 100 | 1018.5 |
| 20260831130053 | 82 | 346 | 0.0 | 0.0 | 0.00 | 0.81 | 0.00 | 100 | 1018.6 |
| 20260831125544 | 82 | 346 | 0.0 | 0.0 | 0.00 | 0.81 | 0.00 | 100 | 1018.6 |
| 20260831125044 | 82 | 346 | 0.0 | 0.0 | 0.00 | 0.81 | 0.00 | 100 | 1018.6 |
| 20260831124543 | 81 | 346 | 0.0 | 0.0 | 0.00 | 0.81 | 0.00 | 100 | 1018.6 |
| 20260831124041 | 81 | 344 | 0.0 | 0.0 | 0.00 | 0.81 | 0.00 | 100 | 1018.6 |
| 20260831123540 | 80 | 350 | 0.0 | 0.0 | 0.00 | 0.81 | 0.00 | 100 | 1018.6 |
| 20260831123041 | 80 | 344 | 0.0 | 0.0 | 0.00 | 0.81 | 0.00 | 100 | 1018.5 |
| 20260831122541 | 80 | 330 | 0.0 | 2.6 | 0.00 | 0.81 | 0.00 | 100 | 1018.4 |
| 20260831122039 | 80 | 332 | 0.9 | 2.6 | 0.00 | 0.81 | 0.00 | 100 | 1018.4 |
| 20260831121536 | 79 | 65 | 0.0 | 0.0 | 0.00 | 0.81 | 0.00 | 100 | 1018.3 |
| 20260831121036 | 79 | 65 | 0.0 | 0.0 | 0.00 | 0.81 | 0.00 | 100 | 1018.2 |
| 20260831120536 | 79 | 65 | 0.0 | 0.0 | 0.00 | 0.81 | 0.00 | 100 | 1018.2 |
| 20260831120036 | 79 | 65 | 0.0 | 0.0 | 0.00 | 0.81 | 0.00 | 100 | 1018.0 |
| 20260831115535 | 79 | 65 | 0.0 | 0.0 | 0.00 | 0.81 | 0.00 | 100 | 1017.9 |
| 20260831115035 | 78 | 65 | 0.0 | 0.0 | 0.00 | 0.81 | 0.00 | 100 | 1017.8 |
| 20260831114539 | 78 | 65 | 0.0 | 0.0 | 0.00 | 0.81 | 0.00 | 100 | 1017.8 |
| 20260831114038 | 78 | 65 | 0.0 | 0.0 | 0.00 | 0.81 | 0.00 | 100 | 1017.7 |
| 20260831113537 | 78 | 65 | 0.0 | 0.0 | 0.00 | 0.81 | 0.00 | 100 | 1017.7 |
| 20260831113038 | 78 | 65 | 0.0 | 0.0 | 0.00 | 0.81 | 0.00 | 100 | 1017.6 |
| 20260831112538 | 78 | 65 | 0.0 | 0.0 | 0.00 | 0.81 | 0.00 | 100 | 1017.6 |
| 20260831112034 | 77 | 65 | 0.0 | 0.0 | 0.00 | 0.81 | 0.00 | 100 | 1017.6 |
| 20260831111533 | 77 | 65 | 0.0 | 0.0 | 0.00 | 0.81 | 0.00 | 100 | 1017.5 |
| 20260831111032 | 77 | 65 | 0.0 | 0.0 | 0.00 | 0.81 | 0.00 | 100 | 1017.5 |
| 20260831110534 | 77 | 65 | 0.0 | 0.0 | 0.00 | 0.81 | 0.00 | 100 | 1017.4 |
| 20260831110034 | 77 | 65 | 0.0 | 0.0 | 0.00 | 0.81 | 0.00 | 100 | 1017.5 |
| 20260831105533 | 77 | 65 | 0.0 | 0.0 | 0.00 | 0.81 | 0.00 | 100 | 1017.3 |
| 20260831105034 | 77 | 65 | 0.0 | 0.0 | 0.00 | 0.81 | 0.00 | 100 | 1017.4 |
| 20260831104533 | 77 | 65 | 0.0 | 0.0 | 0.00 | 0.81 | 0.00 | 100 | 1017.4 |
| 20260831104032 | 77 | 65 | 0.0 | 0.0 | 0.00 | 0.81 | 0.00 | 100 | 1017.2 |
| 20260831103531 | 77 | 65 | 0.0 | 0.0 | 0.00 | 0.81 | 0.00 | 100 | 1017.3 |
| 20260831103031 | 77 | 65 | 0.0 | 0.0 | 0.00 | 0.81 | 0.00 | 100 | 1017.2 |
| 20260831102531 | 77 | 65 | 0.0 | 0.9 | 0.00 | 0.81 | 0.00 | 100 | 1017.2 |
| 20260831102033 | 77 | 65 | 0.0 | 0.9 | 0.00 | 0.81 | 0.00 | 100 | 1017.3 |
| 20260831101531 | 77 | 65 | 0.0 | 0.0 | 0.00 | 0.81 | 0.00 | 100 | 1017.2 |
| 20260831101034 | 77 | 65 | 0.0 | 0.0 | 0.00 | 0.81 | 0.00 | 100 | 1017.1 |
| 20260831100530 | 77 | 65 | 0.0 | 2.6 | 0.00 | 0.81 | 0.00 | 100 | 1017.1 |
| 20260831100030 | 77 | 65 | 0.0 | 2.6 | 0.00 | 0.81 | 0.00 | 100 | 1017.0 |
| 20260831095532 | 77 | 155 | 0.0 | 0.0 | 0.00 | 0.81 | 0.00 | 100 | 1017.0 |
| 20260831095031 | 77 | 155 | 0.0 | 0.0 | 0.00 | 0.81 | 0.00 | 100 | 1017.0 |
| 20260831094530 | 77 | 155 | 0.0 | 0.0 | 0.00 | 0.81 | 0.00 | 100 | 1017.0 |
| 20260831094030 | 77 | 155 | 0.0 | 0.0 | 0.00 | 0.81 | 0.00 | 100 | 1017.1 |
| 20260831093533 | 77 | 155 | 0.0 | 0.0 | 0.00 | 0.81 | 0.00 | 100 | 1017.0 |
| 20260831093030 | 77 | 155 | 0.0 | 0.0 | 0.00 | 0.81 | 0.00 | 100 | 1016.9 |
| 20260831092529 | 77 | 155 | 0.0 | 0.0 | 0.00 | 0.81 | 0.00 | 100 | 1017.0 |
| 20260831092031 | 78 | 155 | 0.0 | 0.0 | 0.00 | 0.81 | 0.00 | 100 | 1016.9 |
| 20260831091528 | 78 | 155 | 0.0 | 0.0 | 0.00 | 0.81 | 0.00 | 100 | 1017.0 |
| 20260831091031 | 78 | 155 | 0.0 | 0.0 | 0.00 | 0.81 | 0.00 | 100 | 1017.0 |
| 20260831090528 | 78 | 155 | 0.0 | 0.0 | 0.00 | 0.81 | 0.00 | 100 | 1017.1 |
| 20260831090028 | 78 | 155 | 0.0 | 0.0 | 0.00 | 0.81 | 0.00 | 100 | 1017.2 |
| 20260831085526 | 78 | 155 | 0.0 | 0.0 | 0.00 | 0.81 | 0.00 | 100 | 1017.2 |
| 20260831085030 | 78 | 155 | 0.0 | 0.0 | 0.00 | 0.81 | 0.00 | 100 | 1017.3 |
| 20260831084527 | 78 | 155 | 0.0 | 0.0 | 0.00 | 0.81 | 0.00 | 100 | 1017.3 |
| 20260831084026 | 78 | 155 | 0.0 | 0.0 | 0.00 | 0.81 | 0.00 | 100 | 1017.4 |
| 20260831083526 | 77 | 155 | 0.0 | 0.0 | 0.00 | 0.81 | 0.00 | 100 | 1017.4 |
| 20260831083026 | 77 | 155 | 0.0 | 0.0 | 0.00 | 0.81 | 0.00 | 100 | 1017.4 |
| 20260831082526 | 77 | 155 | 0.0 | 0.0 | 0.00 | 0.81 | 0.00 | 100 | 1017.3 |
| 20260831082026 | 77 | 155 | 0.0 | 0.0 | 0.00 | 0.81 | 0.00 | 100 | 1017.4 |
| 20260831081525 | 77 | 155 | 0.0 | 0.0 | 0.00 | 0.81 | 0.00 | 100 | 1017.3 |
| 20260831081025 | 77 | 155 | 0.0 | 0.0 | 0.00 | 0.81 | 0.00 | 100 | 1017.3 |
| 20260831080524 | 78 | 155 | 0.0 | 0.0 | 0.00 | 0.81 | 0.00 | 100 | 1017.3 |
| 20260831080124 | 78 | 155 | 0.0 | 0.0 | 0.00 | 0.81 | 0.00 | 100 | 1017.3 |
| 20260831075523 | 78 | 155 | 0.0 | 0.0 | 0.00 | 0.81 | 0.00 | 100 | 1017.3 |
| 20260831075023 | 78 | 156 | 0.0 | 0.0 | 0.00 | 0.81 | 0.00 | 100 | 1017.3 |
| 20260831074524 | 78 | 157 | 0.0 | 0.0 | 0.00 | 0.81 | 0.00 | 100 | 1017.5 |
| 20260831074023 | 78 | 157 | 0.0 | 0.0 | 0.00 | 0.81 | 0.00 | 100 | 1017.4 |
| 20260831073531 | 78 | 157 | 0.0 | 0.0 | 0.00 | 0.81 | 0.00 | 100 | 1017.4 |
| 20260831073027 | 78 | 157 | 0.0 | 0.0 | 0.00 | 0.81 | 0.00 | 100 | 1017.4 |
| 20260831072523 | 78 | 157 | 0.0 | 0.0 | 0.00 | 0.81 | 0.00 | 100 | 1017.4 |
| 20260831072023 | 78 | 157 | 0.0 | 0.0 | 0.00 | 0.81 | 0.00 | 100 | 1017.5 |
| 20260831071521 | 78 | 157 | 0.0 | 0.0 | 0.00 | 0.81 | 0.00 | 100 | 1017.5 |
| 20260831071021 | 78 | 157 | 0.0 | 0.0 | 0.00 | 0.81 | 0.00 | 100 | 1017.6 |
| 20260831070523 | 78 | 157 | 0.0 | 0.0 | 0.00 | 0.81 | 0.00 | 100 | 1017.5 |
| 20260831070028 | 78 | 159 | 0.0 | 0.0 | 0.00 | 0.81 | 0.00 | 100 | 1017.7 |
| 20260831065521 | 78 | 159 | 0.0 | 0.0 | 0.00 | 0.81 | 0.00 | 100 | 1017.7 |
| 20260831065024 | 78 | 159 | 0.0 | 0.0 | 0.00 | 0.81 | 0.00 | 100 | 1017.5 |
| 20260831064521 | 78 | 163 | 0.0 | 0.0 | 0.00 | 0.81 | 0.00 | 100 | 1017.5 |
| 20260831064020 | 78 | 163 | 0.0 | 0.0 | 0.00 | 0.81 | 0.00 | 100 | 1017.4 |
| 20260831063520 | 78 | 163 | 0.0 | 0.0 | 0.00 | 0.81 | 0.00 | 100 | 1017.5 |
| 20260831063019 | 77 | 163 | 0.0 | 0.0 | 0.00 | 0.81 | 0.00 | 100 | 1017.5 |
| 20260831062520 | 77 | 163 | 0.0 | 0.0 | 0.00 | 0.81 | 0.00 | 100 | 1017.5 |
| 20260831062020 | 77 | 163 | 0.0 | 0.0 | 0.00 | 0.81 | 0.00 | 100 | 1017.5 |
| 20260831061518 | 77 | 163 | 0.0 | 0.0 | 0.00 | 0.81 | 0.00 | 100 | 1017.6 |
| 20260831061019 | 77 | 163 | 0.0 | 1.7 | 0.00 | 0.81 | 0.00 | 100 | 1017.7 |
| 20260831060517 | 77 | 163 | 0.0 | 1.7 | 0.00 | 0.81 | 0.00 | 100 | 1017.8 |
| 20260831060016 | 77 | 163 | 0.0 | 2.6 | 0.00 | 0.81 | 0.00 | 100 | 1017.9 |
| 20260831055516 | 77 | 163 | 0.0 | 4.3 | 0.00 | 0.81 | 0.00 | 100 | 1018.1 |
| 20260831055015 | 77 | 163 | 1.7 | 4.3 | 0.00 | 0.81 | 0.00 | 100 | 1018.1 |
| 20260831054515 | 78 | 182 | 1.7 | 5.2 | 0.00 | 0.81 | 0.00 | 100 | 1018.2 |
| 20260831054017 | 78 | 171 | 2.6 | 6.1 | 0.00 | 0.81 | 0.00 | 100 | 1018.3 |
| 20260831053513 | 79 | 172 | 2.6 | 11.3 | 0.00 | 0.81 | 0.00 | 100 | 1018.3 |
| 20260831053012 | 79 | 142 | 5.2 | 11.3 | 0.00 | 0.81 | 0.00 | 100 | 1018.3 |
| 20260831052511 | 79 | 169 | 0.9 | 4.3 | 0.00 | 0.81 | 0.00 | 100 | 1018.3 |
| 20260831052010 | 79 | 165 | 1.7 | 4.3 | 0.00 | 0.81 | 0.00 | 100 | 1018.4 |
| 20260831051522 | 78 | 109 | 0.9 | 3.5 | 0.00 | 0.81 | 0.00 | 100 | 1018.6 |
| 20260831051009 | 78 | 106 | 0.0 | 5.2 | 0.00 | 0.81 | 0.00 | 100 | 1018.6 |
| 20260831050509 | 78 | 104 | 1.7 | 5.2 | 0.00 | 0.81 | 0.00 | 100 | 1018.5 |
| 20260831050009 | 79 | 130 | 0.9 | 7.0 | 0.00 | 0.81 | 0.00 | 100 | 1018.6 |
| 20260831045509 | 79 | 130 | 1.7 | 7.0 | 0.00 | 0.81 | 0.00 | 100 | 1018.7 |
| 20260831045009 | 79 | 90 | 0.0 | 0.0 | 0.00 | 0.81 | 0.00 | 100 | 1018.7 |
| 20260831044508 | 79 | 13 | 0.0 | 0.0 | 0.00 | 0.81 | 0.00 | 100 | 1018.6 |
| 20260831044008 | 78 | 12 | 0.0 | 0.0 | 0.00 | 0.81 | 0.00 | 100 | 1018.6 |
| 20260831043507 | 78 | 12 | 0.0 | 0.0 | 0.00 | 0.81 | 0.00 | 100 | 1018.7 |
| 20260831043008 | 79 | 12 | 0.0 | 0.0 | 0.00 | 0.81 | 0.00 | 100 | 1018.6 |
| 20260831042507 | 78 | 12 | 0.0 | 0.0 | 0.00 | 0.81 | 0.00 | 100 | 1018.6 |
| 20260831042007 | 79 | 12 | 0.0 | 0.0 | 0.00 | 0.81 | 0.00 | 100 | 1018.5 |
| 20260831041509 | 79 | 12 | 0.0 | 0.0 | 0.00 | 0.81 | 0.00 | 100 | 1018.7 |
| 20260831041008 | 79 | 12 | 0.0 | 0.0 | 0.00 | 0.81 | 0.00 | 100 | 1018.8 |
| 20260831040505 | 79 | 11 | 0.0 | 0.0 | 0.00 | 0.81 | 0.00 | 100 | 1018.7 |
| 20260831040005 | 79 | 12 | 0.0 | 0.0 | 0.00 | 0.81 | 0.00 | 100 | 1018.7 |
| 20260831035506 | 79 | 12 | 0.0 | 0.0 | 0.00 | 0.81 | 0.00 | 100 | 1018.7 |
| 20260831035004 | 79 | 12 | 0.0 | 0.0 | 0.00 | 0.81 | 0.00 | 100 | 1018.9 |
| 20260831034505 | 79 | 12 | 0.0 | 0.0 | 0.00 | 0.81 | 0.81 | 100 | 1018.9 |
| 20260831034003 | 79 | 12 | 0.0 | 0.0 | 0.00 | 0.81 | 0.81 | 100 | 1018.9 |
| 20260831033503 | 79 | 12 | 0.0 | 0.0 | 0.00 | 0.81 | 0.81 | 100 | 1018.9 |
| 20260831033004 | 79 | 12 | 0.0 | 0.0 | 0.00 | 0.81 | 0.81 | 100 | 1018.9 |
| 20260831032503 | 79 | 12 | 0.0 | 0.0 | 0.00 | 0.81 | 0.81 | 100 | 1018.9 |
| 20260831032002 | 79 | 12 | 0.0 | 0.0 | 0.00 | 0.81 | 0.81 | 100 | 1018.9 |
| 20260831031502 | 79 | 12 | 0.0 | 0.0 | 0.00 | 0.81 | 0.81 | 100 | 1018.9 |
| 20260831031003 | 79 | 12 | 0.0 | 0.0 | 0.00 | 0.81 | 0.81 | 100 | 1018.8 |
| 20260831030505 | 79 | 12 | 0.0 | 0.0 | 0.00 | 0.81 | 0.81 | 100 | 1018.9 |
| 20260831030002 | 79 | 12 | 0.0 | 0.0 | 0.00 | 0.81 | 0.81 | 100 | 1018.8 |
| 20260831025502 | 79 | 12 | 0.0 | 0.0 | 0.00 | 0.81 | 0.81 | 100 | 1018.8 |
| 20260831025002 | 79 | 11 | 0.0 | 0.0 | 0.00 | 0.81 | 0.81 | 100 | 1018.7 |
| 20260831024502 | 79 | 11 | 0.0 | 1.7 | 0.00 | 0.81 | 0.81 | 100 | 1018.7 |
| 20260831024002 | 79 | 11 | 0.0 | 1.7 | 0.00 | 0.81 | 0.81 | 100 | 1018.7 |
| 20260831023502 | 79 | 12 | 0.0 | 2.6 | 0.00 | 0.81 | 0.81 | 100 | 1018.7 |
| 20260831023001 | 79 | 12 | 0.0 | 2.6 | 0.00 | 0.81 | 0.81 | 100 | 1018.7 |
| 20260831022504 | 79 | 11 | 0.9 | 2.6 | 0.00 | 0.81 | 0.81 | 100 | 1018.6 |
| 20260831022001 | 79 | 12 | 0.0 | 1.7 | 0.00 | 0.81 | 0.81 | 100 | 1018.6 |
| 20260831021603 | 79 | 12 | 0.0 | 1.7 | 0.00 | 0.81 | 0.81 | 100 | 1018.6 |
| 20260831021100 | 79 | 12 | 0.0 | 2.6 | 0.00 | 0.81 | 0.81 | 100 | 1018.7 |
| 20260831021004 | 79 | 12 | 0.0 | 2.6 | 0.00 | 0.81 | 0.81 | 100 | 1018.7 |
| 20260831020600 | 79 | 12 | 0.9 | 3.5 | 0.00 | 0.81 | 0.81 | 100 | 1018.7 |
| 20260831015600 | 79 | 5 | 0.0 | 3.5 | 0.00 | 0.81 | 0.81 | 100 | 1018.6 |
| 20260831015100 | 79 | 355 | 0.0 | 3.5 | 0.00 | 0.81 | 0.81 | 100 | 1018.6 |
| 20260831014610 | 79 | 355 | 0.0 | 3.5 | 0.00 | 0.81 | 0.81 | 100 | 1018.7 |
| 20260831014100 | 79 | 15 | 0.9 | 3.5 | 0.00 | 0.81 | 0.81 | 100 | 1018.7 |
| 20260831013600 | 79 | 17 | 0.9 | 3.5 | 0.00 | 0.81 | 0.81 | 100 | 1018.7 |
| 20260831013113 | 79 | 11 | 0.0 | 2.6 | 0.00 | 0.81 | 0.81 | 100 | 1018.8 |
| 20260831012600 | 79 | 14 | 0.0 | 0.0 | 0.00 | 0.81 | 0.81 | 100 | 1018.9 |
| 20260831012100 | 79 | 15 | 0.0 | 0.0 | 0.00 | 0.81 | 0.81 | 100 | 1018.8 |
| 20260831011604 | 80 | 28 | 0.0 | 0.0 | 0.00 | 0.81 | 0.81 | 100 | 1018.9 |
| 20260831011058 | 80 | 33 | 0.0 | 1.7 | 0.00 | 0.81 | 0.81 | 100 | 1018.8 |
| 20260831010559 | 80 | 38 | 0.0 | 1.7 | 0.00 | 0.81 | 0.81 | 100 | 1018.7 |
| 20260831010058 | 80 | 38 | 0.0 | 2.6 | 0.00 | 0.81 | 0.81 | 100 | 1018.7 |
| 20260831005558 | 80 | 38 | 0.9 | 2.6 | 0.00 | 0.81 | 0.81 | 100 | 1018.7 |
| 20260831005057 | 80 | 79 | 0.0 | 1.7 | 0.00 | 0.81 | 0.81 | 100 | 1018.8 |
| 20260831004558 | 80 | 80 | 0.0 | 1.7 | 0.00 | 0.81 | 0.81 | 100 | 1018.7 |
| 20260831004058 | 80 | 77 | 0.0 | 3.5 | 0.00 | 0.81 | 0.81 | 100 | 1018.7 |
| 20260831003558 | 80 | 55 | 0.0 | 3.5 | 0.00 | 0.81 | 0.81 | 100 | 1018.7 |
| 20260831003059 | 80 | 110 | 0.0 | 1.7 | 0.00 | 0.81 | 0.81 | 100 | 1018.5 |
| 20260831002559 | 80 | 111 | 0.0 | 2.6 | 0.00 | 0.81 | 0.81 | 100 | 1018.6 |
| 20260831002058 | 80 | 113 | 0.0 | 2.6 | 0.00 | 0.81 | 0.81 | 100 | 1018.6 |
| 20260831001557 | 80 | 119 | 0.0 | 2.6 | 0.00 | 0.81 | 0.81 | 100 | 1018.6 |
| 20260831001056 | 80 | 120 | 0.0 | 0.9 | 0.00 | 0.81 | 0.81 | 100 | 1018.6 |
| 20260831000556 | 80 | 40 | 0.0 | 3.5 | 0.00 | 0.81 | 0.81 | 100 | 1018.3 |
| 20260831000056 | 80 | 26 | 0.9 | 3.5 | 0.00 | 0.81 | 0.81 | 100 | 1018.4 |
| 20260830235555 | 80 | 101 | 0.0 | 3.5 | 0.00 | 0.81 | 0.81 | 100 | 1018.5 |
| 20260830235057 | 81 | 104 | 0.0 | 1.7 | 0.00 | 0.81 | 0.81 | 100 | 1018.5 |
| 20260830234604 | 81 | 104 | 0.0 | 3.5 | 0.00 | 0.81 | 0.81 | 100 | 1018.4 |
| 20260830234059 | 81 | 105 | 0.0 | 3.5 | 0.00 | 0.81 | 0.81 | 100 | 1018.3 |
| 20260830233556 | 81 | 107 | 0.9 | 3.5 | 0.00 | 0.81 | 0.81 | 100 | 1018.4 |
| 20260830233055 | 81 | 105 | 0.0 | 2.6 | 0.00 | 0.81 | 0.81 | 100 | 1018.3 |
| 20260830232555 | 81 | 96 | 0.0 | 2.6 | 0.00 | 0.81 | 0.81 | 100 | 1018.1 |
| 20260830232057 | 81 | 74 | 0.0 | 2.6 | 0.00 | 0.81 | 0.81 | 100 | 1018.0 |
| 20260830231555 | 81 | 103 | 0.0 | 1.7 | 0.00 | 0.81 | 0.81 | 100 | 1017.9 |
| 20260830231054 | 81 | 105 | 0.0 | 1.7 | 0.00 | 0.81 | 0.81 | 100 | 1017.8 |
| 20260830230554 | 81 | 105 | 0.0 | 2.6 | 0.00 | 0.81 | 0.81 | 100 | 1017.8 |
| 20260830230055 | 81 | 105 | 0.9 | 2.6 | 0.00 | 0.81 | 0.81 | 100 | 1017.6 |
| 20260830225554 | 81 | 97 | 0.9 | 2.6 | 0.00 | 0.81 | 0.81 | 100 | 1017.6 |
| 20260830225054 | 81 | 90 | 0.0 | 2.6 | 0.00 | 0.81 | 0.81 | 100 | 1017.8 |
| 20260830224556 | 81 | 91 | 0.0 | 2.6 | 0.00 | 0.82 | 0.81 | 100 | 1017.8 |
| 20260830224054 | 82 | 48 | 0.0 | 2.6 | 0.00 | 0.82 | 0.81 | 100 | 1017.9 |
| 20260830223556 | 82 | 81 | 0.0 | 2.6 | 0.00 | 0.82 | 0.81 | 100 | 1018.0 |
| 20260830223055 | 82 | 81 | 0.0 | 2.6 | 0.00 | 0.82 | 0.81 | 100 | 1018.0 |
| 20260830222556 | 82 | 81 | 0.9 | 2.6 | 0.00 | 0.82 | 0.81 | 100 | 1018.1 |
| 20260830222053 | 82 | 61 | 0.0 | 3.5 | 0.00 | 0.82 | 0.81 | 100 | 1018.1 |
| 20260830221553 | 82 | 93 | 0.0 | 3.5 | 0.00 | 0.82 | 0.81 | 100 | 1018.1 |
| 20260830221052 | 82 | 96 | 0.0 | 2.6 | 0.00 | 0.82 | 0.81 | 100 | 1018.2 |
| 20260830220552 | 82 | 96 | 0.9 | 2.6 | 0.00 | 0.82 | 0.81 | 100 | 1018.1 |
| 20260830220053 | 82 | 83 | 0.0 | 2.6 | 0.00 | 0.82 | 0.81 | 100 | 1018.1 |
| 20260830215553 | 82 | 54 | 0.9 | 4.3 | 0.00 | 0.82 | 0.81 | 100 | 1018.1 |
| 20260830215051 | 83 | 69 | 0.0 | 2.6 | 0.00 | 0.82 | 0.81 | 100 | 1018.1 |
| 20260830214551 | 83 | 85 | 0.0 | 2.6 | 0.00 | 0.83 | 0.81 | 100 | 1018.1 |
| 20260830214053 | 83 | 17 | 0.0 | 2.6 | 0.00 | 0.83 | 0.81 | 100 | 1018.0 |
| 20260830213553 | 83 | 99 | 0.9 | 3.5 | 0.00 | 0.83 | 0.81 | 100 | 1017.8 |
| 20260830213054 | 84 | 101 | 0.9 | 3.5 | 0.00 | 0.83 | 0.81 | 100 | 1017.7 |
| 20260830212551 | 84 | 26 | 0.9 | 6.1 | 0.00 | 0.83 | 0.81 | 100 | 1017.8 |
| 20260830212051 | 84 | 98 | 1.7 | 6.1 | 0.00 | 0.83 | 0.81 | 100 | 1017.9 |
| 20260830211552 | 85 | 117 | 0.9 | 6.1 | 0.00 | 0.83 | 0.81 | 100 | 1017.9 |
| 20260830211050 | 84 | 113 | 2.6 | 6.1 | 0.00 | 0.83 | 0.81 | 100 | 1017.9 |
| 20260830210551 | 85 | 131 | 1.7 | 6.1 | 0.00 | 0.83 | 0.81 | 100 | 1018.0 |
| 20260830210053 | 85 | 117 | 1.7 | 6.1 | 0.00 | 0.83 | 0.81 | 100 | 1017.9 |
| 20260830205550 | 85 | 105 | 2.6 | 6.1 | 0.00 | 0.83 | 0.81 | 100 | 1017.9 |
| 20260830205051 | 85 | 141 | 2.6 | 6.1 | 0.00 | 0.83 | 0.81 | 100 | 1017.9 |
| 20260830204550 | 85 | 131 | 1.7 | 7.0 | 0.00 | 0.93 | 0.81 | 100 | 1017.9 |
| 20260830204053 | 85 | 130 | 0.9 | 7.0 | 0.00 | 0.93 | 0.81 | 100 | 1017.8 |
| 20260830203550 | 85 | 116 | 0.0 | 3.5 | 0.00 | 0.93 | 0.81 | 100 | 1017.9 |
| 20260830203109 | 85 | 105 | 0.0 | 2.6 | 0.00 | 0.93 | 0.81 | 100 | 1017.8 |
| 20260830202551 | 84 | 139 | 0.0 | 3.5 | 0.00 | 0.93 | 0.81 | 100 | 1018.1 |
| 20260830202049 | 84 | 139 | 0.9 | 6.1 | 0.00 | 0.93 | 0.81 | 100 | 1018.1 |
| 20260830201550 | 84 | 140 | 2.6 | 6.1 | 0.00 | 0.93 | 0.81 | 100 | 1018.1 |
| 20260830201048 | 84 | 141 | 1.7 | 7.0 | 0.00 | 0.93 | 0.81 | 100 | 1018.2 |
| 20260830200651 | 83 | 153 | 2.6 | 7.0 | 0.00 | 0.93 | 0.81 | 100 | 1018.2 |
| 20260830200049 | 84 | 173 | 1.7 | 4.3 | 0.00 | 0.93 | 0.81 | 100 | 1018.3 |
| 20260830195549 | 84 | 167 | 2.6 | 7.0 | 0.00 | 0.93 | 0.81 | 100 | 1018.3 |